Flag for Netherlands Weather past 2 weeks in Amsterdam, Netherlands

Now
61 °F

Sunny.


Feels Like: 61 °F
Forecast: 50 / 61 °F
Wind: 10 mph from East

Location: Amsterdam Schiphol Airport


UV Index: 0 (Low)

Visibility: 10 mi


Pressure: 29.71 "Hg

Humidity: 63%

Dew point: 48 °F

Location of AmsterdamLocation

Historic Weather in Amsterdam

°F

Amsterdam temperature yesterday

Maximum temperature yesterday: 59 °F (at 3:55 PM)
Minimum temperature yesterday: 43 °F (at 12:25 AM)
Average temperature yesterday: 51 °F

Past Weeks' High & Low Weather Summary

 TemperatureHumidityPressure
High70 °F (Apr 20, 2:55 PM)100% (Apr 6, 10:55 AM)30.45 "Hg (Apr 6, 10:55 AM)
Low36 °F (Apr 16, 5:25 AM)34% (Apr 17, 2:55 PM)29.68 "Hg (Apr 8, 1:25 AM)
Average51 °F75%30.07 "Hg
* Reported Apr 5 8:25 PM — Apr 20 8:55 PM, Amsterdam, Weather by CustomWeather, © 2014

Note: Actual official high and low records may vary slightly from our data, if they occured in-between our weather recording intervals... More about our weather records

Advertising

Historic Weather Conditions — Data for Previous 24 hours

 ConditionsComfort  
Time TempWeatherWind HumidityBarometerVisibility
8:55 PM
Apr 20
61 °FSunny.10 mph63%29.71 "Hg10 mi
8:25 PM63 °FSunny.10 mph59%29.68 "Hg10 mi
7:55 PM64 °FPassing clouds.13 mph56%29.68 "HgN/A
7:25 PM66 °FPassing clouds.12 mph52%29.68 "HgN/A
6:55 PM66 °FPassing clouds.15 mph52%29.68 "HgN/A
6:25 PM68 °FPassing clouds.14 mph53%29.68 "HgN/A
5:55 PM68 °FPassing clouds.18 mph49%29.68 "HgN/A
5:25 PM68 °FPassing clouds.18 mph49%29.68 "HgN/A
4:55 PM68 °FSunny.22 mph49%29.68 "Hg10 mi
4:25 PM70 °FPassing clouds.23 mph46%29.68 "HgN/A
3:55 PM70 °FPassing clouds.25 mph46%29.68 "HgN/A
3:25 PM70 °FPassing clouds.21 mph46%29.71 "HgN/A
2:55 PM70 °FPassing clouds.16 mph50%29.71 "HgN/A
2:25 PM68 °FPassing clouds.17 mph53%29.71 "HgN/A
1:55 PM68 °FPassing clouds.17 mph56%29.71 "HgN/A
1:25 PM66 °FPassing clouds.17 mph60%29.74 "HgN/A
12:55 PM64 °FPassing clouds.20 mph60%29.74 "HgN/A
12:25 PM64 °FSunny.15 mph60%29.77 "Hg10 mi
11:55 AM63 °FPassing clouds.16 mph68%29.77 "HgN/A
11:25 AM61 °FSunny.16 mph68%29.77 "Hg10 mi
10:55 AM59 °FSunny.18 mph72%29.77 "Hg10 mi
10:25 AM57 °FPassing clouds.16 mph72%29.80 "HgN/A
9:55 AM55 °FSunny.16 mph77%29.80 "Hg10 mi
9:25 AM54 °FPassing clouds.15 mph77%29.80 "HgN/A
8:55 AM52 °FSunny.16 mph82%29.80 "Hg10 mi
8:25 AM52 °FSunny.16 mph82%29.83 "Hg10 mi
7:55 AM52 °FSunny.14 mph82%29.83 "Hg10 mi
7:25 AM52 °FClear.14 mph82%29.83 "Hg10 mi
6:55 AM52 °FClear.14 mph82%29.83 "Hg10 mi
6:25 AM52 °FClear.15 mph77%29.83 "Hg6 mi
5:55 AM52 °FClear.16 mph77%29.83 "Hg10 mi
5:25 AM52 °FClear.16 mph77%29.83 "Hg10 mi
4:55 AM52 °FClear.15 mph77%29.86 "Hg6 mi
4:25 AM52 °FClear.15 mph77%29.86 "Hg6 mi
3:55 AM52 °FClear.14 mph77%29.86 "Hg6 mi
3:25 AM52 °FClear.14 mph77%29.89 "Hg5 mi
2:55 AM52 °FClear.15 mph77%29.89 "Hg5 mi
2:25 AM52 °FClear.15 mph82%29.92 "Hg5 mi
1:55 AM52 °FClear.16 mph82%29.92 "Hg5 mi
1:25 AM52 °FClear.17 mph82%29.92 "Hg5 mi
12:55 AM52 °FClear.15 mph82%29.95 "Hg5 mi
12:25 AM52 °FClear.16 mph82%29.95 "Hg5 mi
11:55 PM
Apr 19
52 °FClear.17 mph88%29.95 "Hg10 mi
11:25 PM52 °FPassing clouds.18 mph88%29.95 "HgN/A
10:55 PM52 °FPassing clouds.16 mph82%29.98 "HgN/A
10:25 PM52 °FPassing clouds.15 mph82%29.98 "HgN/A
9:55 PM54 °FPassing clouds.15 mph77%29.98 "HgN/A
9:25 PM54 °FPassing clouds.16 mph82%29.98 "HgN/A
Weather by CustomWeather, © 2014

See weather overview